Terminal Aerodrome Forecast
Issued by NWS New Orleans/Baton Rouge, LA

Home | Current Version | Previous Version | Text Only | Print | Product List | Glossary On
Versions: 1 2 3 4 5 6 7 8 9 10 11 12 13 14 15 16 17 18 19 20 21 22 23 24 25 26
000
FTUS44 KLIX 031728
TAFNEW
TAF
KNEW 031728Z 0318/0418 35005KT P6SM SCT035 BKN250
     FM032200 18007KT P6SM BKN250
     FM040500 24007KT P6SM SCT250
     FM041200 30004KT P6SM SCT250=

USA.gov is the U.S. government's official web portal to all federal, state and local government web resources and services.